Weather History for Canby, MN

Change the Weather History Date:

Friday, October 4, 2013

  Actual Average (KMML) Record (KMML)
Temperature  
Mean Temperature 53 °F -  
Max Temperature 56 °F 65 °F 87 °F (1987)
Min Temperature 51 °F 40 °F 23 °F (1988)
Degree Days  
Heating Degree Days 12    
Growing Degree Days 3 (Base 50)    
Moisture  
Dew Point 53 °F    
Average Humidity 97    
Maximum Humidity 99    
Minimum Humidity 96    
Precipitation  
Precipitation 0.32 in - - ()
Sea Level Pressure  
Sea Level Pressure 29.90 in    
Wind  
Wind Speed 11 mph (NE)    
Max Wind Speed 17 mph    
Max Gust Speed 23 mph    
Visibility 4 miles    
Events Rain , Thunderstorm    
Averages and records for this station are not official NWS values.
T = Trace of Precipitation, MM = Missing Value Source: NWS Daily Summary

Daily Weather History Graph

Daily Weather History Graph

Search for Another Location

Airport:

Trip Planner

Search our weather history database for the weather conditions in past years. The results will help you decide how hot, cold, wet, or windy it might be!

Date:

Astronomy

Oct. 04, 2013 Rise Set
Actual Time 7:26 AM CDT 6:59 PM CDT
Civil Twilight 6:57 AM CDT 7:28 PM CDT
Nautical Twilight 6:23 AM CDT 8:02 PM CDT
Astronomical Twilight 5:49 AM CDT 8:36 PM CDT
Moon 7:04 AM CDT (10/4) 6:41 PM CDT (10/4)
Length of Visible Light 12h 30m
Length of Day
11h 32m
Waning Crescent, 0% of the Moon is Illuminated
Oct 4
Waning Crescent
Oct 4
New
Oct 11
First Quarter
Oct 18
Full
Oct 26
Last Quarter

Hourly Weather History & Observations

Time (CDT) Temp. Dew Point Humidity Pressure Visibility Wind Dir Wind Speed Gust Speed Precip Events Conditions
12:14 AM 52.9 °F 52.2 °F 97% 29.97 in 5.0 mi NNE 12.7 mph - N/A   Overcast
12:34 AM 52.7 °F 52.0 °F 97% 29.96 in 7.0 mi NNE 10.4 mph - N/A   Overcast
12:54 AM 52.7 °F 52.0 °F 97% 29.95 in 10.0 mi NNE 11.5 mph 17.3 mph N/A   Overcast
1:14 AM 52.9 °F 52.2 °F 97% 29.96 in 10.0 mi NNE 9.2 mph - N/A   Overcast
1:34 AM 52.9 °F 52.0 °F 97% 29.96 in 10.0 mi NE 9.2 mph 16.1 mph N/A   Overcast
1:54 AM 52.9 °F 52.0 °F 97% 29.98 in 10.0 mi NE 10.4 mph - N/A   Overcast
2:14 AM 52.7 °F 51.8 °F 97% 29.98 in 5.0 mi NNE 10.4 mph - N/A   Overcast
2:34 AM 52.7 °F 51.8 °F 97% 29.96 in 7.0 mi NNE 8.1 mph - N/A   Overcast
2:54 AM 52.3 °F 51.4 °F 97% 29.97 in 10.0 mi NE 8.1 mph - N/A   Overcast
3:14 AM 52.2 °F 51.1 °F 96% 29.96 in 10.0 mi NNE 10.4 mph - N/A   Overcast
3:34 AM 52.2 °F 51.1 °F 96% 29.95 in 10.0 mi NE 12.7 mph - N/A   Overcast
3:54 AM 52.0 °F 50.9 °F 96% 29.94 in 10.0 mi NNE 11.5 mph - N/A   Overcast
4:14 AM 52.0 °F 50.9 °F 96% 29.95 in 10.0 mi NE 9.2 mph - N/A   Overcast
4:34 AM 51.8 °F 50.9 °F 97% 29.97 in 10.0 mi ENE 6.9 mph - N/A   Overcast
4:54 AM 51.8 °F 50.9 °F 97% 29.97 in 10.0 mi NE 9.2 mph - N/A   Overcast
5:13 AM 52.0 °F 50.9 °F 96% 29.96 in 10.0 mi ENE 6.9 mph - N/A   Overcast
5:34 AM 52.0 °F 50.9 °F 96% 29.96 in 10.0 mi NNE 6.9 mph - N/A   Overcast
5:53 AM 51.8 °F 50.9 °F 97% 29.96 in 10.0 mi NE 9.2 mph - N/A   Overcast
6:14 AM 51.8 °F 50.9 °F 97% 29.96 in 4.0 mi NE 8.1 mph - N/A   Overcast
6:33 AM 51.8 °F 51.1 °F 97% 29.96 in 4.0 mi NNE 6.9 mph - N/A   Overcast
6:54 AM 51.8 °F 51.1 °F 97% 29.97 in 4.0 mi NE 8.1 mph - N/A   Overcast
7:14 AM 52.0 °F 51.4 °F 98% 29.97 in 4.0 mi NE 10.4 mph - N/A   Overcast
7:33 AM 52.0 °F 51.4 °F 98% 29.97 in 3.0 mi NE 8.1 mph - N/A   Drizzle
7:54 AM 52.0 °F 51.4 °F 98% 29.95 in 3.0 mi NNE 11.5 mph 16.1 mph N/A   Light Drizzle
8:14 AM 52.0 °F 51.6 °F 99% 29.96 in 3.0 mi NE 11.5 mph - N/A   Overcast
8:33 AM 52.2 °F 51.8 °F 99% 29.96 in 3.0 mi NE 12.7 mph - N/A   Overcast
8:54 AM 52.3 °F 51.8 °F 98% 29.96 in 5.0 mi NE 10.4 mph - N/A   Overcast
9:14 AM 52.3 °F 51.8 °F 98% 29.96 in 4.0 mi NE 12.7 mph 17.3 mph N/A   Overcast
9:33 AM 52.3 °F 51.8 °F 98% 29.96 in 3.0 mi NE 11.5 mph 17.3 mph N/A   Overcast
9:54 AM 52.3 °F 51.8 °F 98% 29.95 in 3.0 mi NE 13.8 mph 19.6 mph N/A   Overcast
10:14 AM 52.3 °F 51.8 °F 98% 29.95 in 4.0 mi NE 17.3 mph 23.0 mph N/A   Overcast
10:33 AM 52.3 °F 51.8 °F 98% 29.97 in 4.0 mi NE 10.4 mph - N/A   Overcast
10:54 AM 52.5 °F 52.0 °F 98% 29.97 in 2.5 mi NE 9.2 mph 18.4 mph N/A Rain Light Rain
11:14 AM 52.7 °F 52.0 °F 97% 29.98 in 2.0 mi NE 11.5 mph - N/A   Light Drizzle
11:34 AM 52.7 °F 52.2 °F 98% 29.97 in 1.8 mi NE 15.0 mph 18.4 mph N/A Rain Light Rain
11:54 AM 52.7 °F 52.2 °F 98% 29.96 in 1.5 mi NE 11.5 mph 19.6 mph N/A Rain Light Rain
12:13 PM 52.7 °F 52.2 °F 98% 29.95 in 2.0 mi ENE 13.8 mph - N/A Rain Light Rain
12:34 PM 52.9 °F 52.5 °F 99% 29.94 in 2.5 mi ENE 11.5 mph 18.4 mph 0.01 in   Overcast
12:54 PM 53.1 °F 52.5 °F 98% 29.95 in 1.8 mi ENE 10.4 mph 16.1 mph 0.01 in   Overcast
1:14 PM 52.9 °F 52.3 °F 98% 29.94 in 2.0 mi ENE 13.8 mph 18.4 mph N/A Rain Light Rain
1:34 PM 53.1 °F 52.3 °F 97% 29.93 in 1.5 mi ENE 12.7 mph 18.4 mph N/A Rain Light Rain
1:54 PM 53.1 °F 52.3 °F 97% 29.92 in 1.2 mi ENE 11.5 mph 20.7 mph 0.01 in Rain Light Rain
2:14 PM 53.8 °F 53.1 °F 97% 29.89 in 2.0 mi ENE 13.8 mph 23.0 mph N/A Rain Light Rain
2:34 PM 53.6 °F 52.9 °F 97% 29.89 in 3.0 mi ENE 15.0 mph 19.6 mph N/A   Overcast
2:53 PM 53.8 °F 53.1 °F 97% 29.89 in 7.0 mi ENE 15.0 mph - N/A   Overcast
3:14 PM 53.8 °F 52.9 °F 97% 29.88 in 10.0 mi ENE 15.0 mph 18.4 mph N/A   Overcast
3:34 PM 54.0 °F 52.9 °F 96% 29.88 in 2.5 mi ENE 12.7 mph 19.6 mph N/A   Overcast
3:54 PM 54.0 °F 53.1 °F 97% 29.86 in 2.5 mi ENE 15.0 mph 20.7 mph N/A   Overcast
4:13 PM 54.3 °F 53.4 °F 97% 29.87 in 2.0 mi East 11.5 mph 17.3 mph N/A   Overcast
4:34 PM 54.5 °F 53.6 °F 97% 29.87 in 1.8 mi ENE 10.4 mph 18.4 mph N/A   Overcast
4:54 PM 54.5 °F 53.6 °F 97% 29.87 in 1.5 mi East 13.8 mph 19.6 mph N/A   Light Drizzle
5:14 PM 54.5 °F 53.8 °F 97% 29.87 in 1.5 mi East 15.0 mph 19.6 mph N/A   Light Drizzle
5:34 PM 54.5 °F 53.8 °F 97% 29.86 in 1.2 mi East 12.7 mph 20.7 mph N/A Rain Light Rain
5:54 PM 54.7 °F 54.0 °F 97% 29.83 in 1.8 mi ENE 16.1 mph - 0.02 in Rain Light Rain
6:13 PM 54.7 °F 54.1 °F 98% 29.82 in 2.0 mi ENE 16.1 mph 21.9 mph 0.01 in Rain Rain
6:34 PM 54.7 °F 54.1 °F 98% 29.82 in 3.0 mi ENE 15.0 mph 19.6 mph 0.03 in Rain Light Rain
6:54 PM 54.9 °F 54.1 °F 97% 29.82 in 4.0 mi ENE 12.7 mph 18.4 mph 0.03 in Rain Light Rain
7:13 PM 54.9 °F 54.1 °F 97% 29.81 in 3.0 mi ENE 13.8 mph 18.4 mph 0.01 in   Heavy Drizzle
7:34 PM 54.9 °F 54.1 °F 97% 29.80 in 3.0 mi ENE 16.1 mph 20.7 mph 0.01 in Rain Rain
7:54 PM 54.9 °F 54.1 °F 97% 29.80 in 2.5 mi ENE 16.1 mph 20.7 mph 0.02 in Rain Light Rain
8:13 PM 55.0 °F 54.3 °F 97% 29.80 in 2.5 mi East 15.0 mph 19.6 mph 0.01 in Rain Rain
8:34 PM 55.0 °F 54.5 °F 98% 29.80 in 3.0 mi East 12.7 mph 18.4 mph 0.04 in Rain Rain
8:54 PM 55.0 °F 54.5 °F 98% 29.79 in 3.0 mi ENE 13.8 mph 18.4 mph 0.07 in Rain , Thunderstorm Light Thunderstorms and Rain
9:13 PM 55.0 °F 54.5 °F 98% 29.77 in 2.5 mi East 13.8 mph 20.7 mph 0.02 in Rain Rain
9:34 PM 55.2 °F 54.5 °F 97% 29.79 in 2.5 mi East 11.5 mph - 0.08 in Rain , Thunderstorm Heavy Thunderstorms and Rain
9:54 PM 55.4 °F 54.5 °F 97% 29.80 in 2.5 mi East 9.2 mph - 0.15 in Rain , Thunderstorm Heavy Thunderstorms and Rain
10:14 PM 55.4 °F 54.5 °F 97% 29.77 in 3.0 mi ENE 8.1 mph - 0.01 in Rain Light Rain
10:34 PM 55.4 °F 54.7 °F 97% 29.78 in 2.5 mi East 5.8 mph - 0.01 in   Drizzle
10:53 PM 55.6 °F 55.0 °F 98% 29.78 in 2.5 mi East 8.1 mph - 0.01 in Rain Light Rain
11:14 PM 55.8 °F 55.4 °F 99% 29.77 in 4.0 mi East 9.2 mph - N/A   Overcast
11:33 PM 55.9 °F 55.4 °F 98% 29.76 in 5.0 mi East 9.2 mph - N/A   Overcast
11:54 PM 55.9 °F 55.4 °F 98% 29.76 in 5.0 mi East 6.9 mph - N/A Rain Rain